Leadville, CO

2:19 AM MST on December 07, 2019 (GMT -0700)
Lake County

Weather History for KLXV - November, 2019

Change the Weather History Date:

Saturday, November 16, 2019

  Actual Average Record
Temperature  
Mean Temperature 34 °F -  
Max Temperature 43 °F 36 °F 55 °F (1999)
Min Temperature 25 °F 12 °F -10 °F (1980)
Degree Days  
Heating Degree Days 31 41  
Month to date heating degree days 552 602  
Since 1 July heating degree days 2620 2791  
Cooling Degree Days 0 0  
Month to date cooling degree days 0 0  
Year to date cooling degree days 0 0  
Moisture  
Dew Point 18 °F    
Average Humidity 61    
Maximum Humidity 85    
Minimum Humidity 36    
Precipitation  
Precipitation 0.01 in 0.03 in 0.36 in (2015)
Month to date precipitation 0.02 0.44  
Year to date precipitation 14.08 11.38  
Sea Level Pressure  
Sea Level Pressure 30.06 in    
Wind  
Wind Speed 8 mph (North)    
Max Wind Speed 18 mph    
Max Gust Speed 27 mph    
Visibility 9 miles    
Events Snow    
T = Trace of Precipitation, MM = Missing Value Source: NWS Daily Summary

Daily Weather History Graph

Daily Weather History Graph

Search for Another Location

Airport or City:

Astronomy

Nov. 16, 2019 Rise Set
Actual Time 6:49 AM MST 4:50 PM MST
Civil Twilight 6:20 AM MST 5:18 PM MST
Nautical Twilight 5:48 AM MST 5:51 PM MST
Astronomical Twilight 5:16 AM MST 6:22 PM MST
Moon 8:26 PM MST (11/16) 10:45 AM MST (11/16)
Length of Visible Light 10h 57m
Length of Day
10h 00m
Waning Gibbous, 82% of the Moon is Illuminated
Nov 16
Waning Gibbous
Nov 19
Last Quarter
Nov 26
New
Dec 3
First Quarter
Dec 11
Full

Hourly Weather History & Observations

Time (MST) Temp. Windchill Dew Point Humidity Pressure Visibility Wind Dir Wind Speed Gust Speed Precip Events Conditions
12:53 AM 26.1 °F - 12.0 °F 55% 29.99 in 10.0 mi Calm Calm - N/A   Clear
1:53 AM 28.9 °F 22.8 °F 12.9 °F 51% 29.96 in 10.0 mi NE 5.8 mph - N/A   Clear
2:53 AM 27.0 °F 23.0 °F 12.9 °F 56% 29.96 in 10.0 mi ENE 3.5 mph - N/A   Clear
3:53 AM 26.1 °F 16.8 °F 12.9 °F 58% 29.98 in 10.0 mi NE 9.2 mph - N/A   Clear
4:53 AM 26.1 °F 16.8 °F 12.9 °F 58% 30.02 in 10.0 mi NE 9.2 mph - N/A   Clear
5:53 AM 30.0 °F 24.1 °F 12.9 °F 49% 30.02 in 10.0 mi NNW 5.8 mph - N/A   Clear
6:53 AM 30.9 °F 26.2 °F 14.0 °F 50% 30.01 in 10.0 mi NNE 4.6 mph - N/A   Clear
7:53 AM 34.0 °F 28.8 °F 14.0 °F 44% 30.04 in 10.0 mi North 5.8 mph - N/A   Scattered Clouds
8:53 AM 39.0 °F 34.0 °F 15.1 °F 38% 30.02 in 10.0 mi NNE 6.9 mph - N/A   Scattered Clouds
9:53 AM 39.0 °F 34.8 °F 17.1 °F 41% 30.03 in 10.0 mi Variable 5.8 mph - N/A   Overcast
10:53 AM 39.9 °F 33.4 °F 17.1 °F 40% 30.00 in 10.0 mi NNW 10.4 mph 17.3 mph N/A   Clear
11:53 AM 41.0 °F 33.5 °F 17.1 °F 38% 29.99 in 10.0 mi NNW 13.8 mph 21.9 mph N/A   Scattered Clouds
12:53 PM 42.1 °F 35.7 °F 17.1 °F 37% 29.95 in 10.0 mi NW 11.5 mph 21.9 mph N/A   Overcast
1:53 PM 39.9 °F 32.9 °F 16.0 °F 38% 29.92 in 10.0 mi NW 11.5 mph 23.0 mph N/A   Scattered Clouds
3:53 PM 37.9 °F 31.5 °F 17.1 °F 43% 29.99 in 10.0 mi NW 9.2 mph 17.3 mph N/A   Mostly Cloudy
4:53 PM 36.0 °F 26.3 °F 17.1 °F 46% 30.02 in 10.0 mi NW 16.1 mph 24.2 mph N/A   Overcast
5:53 PM 32.0 °F 24.8 °F 18.0 °F 56% 30.05 in 10.0 mi NNW 8.1 mph - N/A   Scattered Clouds
6:53 PM 30.0 °F 26.5 °F 21.0 °F 69% 30.07 in 10.0 mi NNE 3.5 mph - 0.00 in   Mostly Cloudy
7:36 PM 28.9 °F 21.1 °F 23.0 °F 78% 30.27 in 1.8 mi North 8.1 mph - 0.00 in Snow Light Snow
7:43 PM 28.0 °F 20.8 °F 24.1 °F 85% 30.27 in 3.0 mi North 6.9 mph - 0.00 in Snow Light Snow
7:51 PM 28.4 °F 21.2 °F 24.8 °F 86% 30.27 in 2.5 mi North 6.9 mph - 0.00 in Snow Light Snow
7:53 PM 28.0 °F 20.8 °F 24.1 °F 85% 30.09 in 2.0 mi NNE 6.9 mph - 0.00 in Snow Light Snow
8:00 PM 28.0 °F 22.8 °F 24.1 °F 85% 30.26 in 2.5 mi NE 4.6 mph - 0.01 in Snow Light Snow
8:07 PM 27.0 °F 20.5 °F 23.0 °F 85% 30.26 in 9.0 mi ENE 5.8 mph - 0.01 in   Mostly Cloudy
8:53 PM 28.0 °F 21.7 °F 21.9 °F 78% 30.05 in 10.0 mi NNE 5.8 mph - 0.01 in   Mostly Cloudy
9:53 PM 26.1 °F 19.4 °F 21.0 °F 81% 30.07 in 10.0 mi North 5.8 mph - N/A   Overcast
10:53 PM 26.1 °F 16.8 °F 19.0 °F 75% 30.07 in 10.0 mi NNE 9.2 mph - N/A   Mostly Cloudy
11:53 PM 26.1 °F 18.4 °F 17.1 °F 69% 30.06 in 10.0 mi NNE 6.9 mph - N/A   Mostly Cloudy